Location: Augirein
(42.9320°N, 0.9181°E)
Time: 16:03:37
(UTC+00:00)

Cosmos 2369 Rocket - Pass Details

Date: 20 June 2021
Orbit: 828 x 854 km, 71.0° (Epoch: 03 August)

Event Time Altitude Azimuth Distance (km) Brightness Sun altitude
Rises 00:28:06 0° 337° (NNW) 3,432 6.3 -23.3°
Reaches altitude 10° 00:30:35 10° 339° (NNW) 2,492 5.5 -23.2°
Maximum altitude 00:36:18 70° 63° (ENE) 907 2.4 -23.0°
Enters shadow 00:38:39 36° 137° (SE) 1,315 2.9 -23.0°
